www.pogodaiklimat.ru
ПОГОДА в Биратнагаре
Время
(UTC), дата
06 17.02
09 17.02
12 17.02
00 18.02
03 18.02
06 18.02
06 19.02
09 19.02
12 19.02
18 19.02
03 20.02
06 20.02
09 20.02
12 20.02
00 21.02
03 21.02
06 21.02
09 21.02
12 21.02
06 22.02
09 22.02
12 22.02
00 23.02
06 23.02
09 23.02
12 23.02
18 23.02
00 24.02
03 24.02
Ветер
(напр.,м/с)
Видим. Явления Облачность Т
(С)
Тd
(С)
f
(%)
Тe
(С)
Тes
(С)
Комфортность P
(гПа)
Po
(гПа)
Тmin
(С)
Tmax
(С)
R
(мм)
R24
(мм)
S
(см)
штиль 0 1000 м мгла {туман} 8/8 300 м
[St]
+21.2 +16.9 76 +25 +29 комфорт 1016.6 1008.4
З 2 2000 м дымка {туман} ясно +25.2 +16.4 58 +29 +36 душно 1013.8 1005.6
штиль 0 1600 м мгла {туман} ясно +23.0 +17.0 69 +28 +28 душно 1013.0 1004.8 +25.5
штиль 0 100 м туман ?/? +14.4 +14.4 100 +14 +14 1013.5 1005.3
штиль 0 100 м туман ?/? +15.0 +15.0 100 +15 +15 1015.0 1006.8 +14.2
штиль 0 1000 м мгла {туман} ясно +21.6 +17.5 77 +26 +45 душно 1014.0 1006.2
В 1 1000 м дымка {туман} ясно +23.2 +17.5 70 +29 +45 душно 1016.0 1007.8
ЮВ 2 2000 м мгла {туман} ясно +25.6 +15.5 54 +29 +36 душно 1013.9 1005.7
З 1 2000 м дымка {туман} ясно +23.2 +16.7 67 +28 +28 душно 1013.8 1005.6 +26.2
Ю 1 н/о н/о +18.9 +13.6 71 +21 +21 комфорт 1015.0 1012.5 +29.4
штиль 0 600 м туман на расстоянии ясно +17.4 +17.2 99 +17 +25 1018.2 1010.0 +14.0
ЮВ 3 2000 м мгла {туман} 8/8 300 м
[St]
+24.4 +15.6 58 +27 +30 жарко 1018.2 1010.0
ЮВ 2 5000 м мгла {туман} 8/8 300 м
[St]
+25.0 +12.1 45 +27 +28 жарко 1015.2 1007.0
штиль 0 4000 м дымка {туман} 8/8 300 м
[St]
+21.6 +15.9 70 +25 +25 комфорт 1015.0 1006.8 +25.5 0.2
Ю 1 1000 м туман на расстоянии ясно +16.7 +10.7 68 +18 +18 1013.0 1010.4
штиль 0 1600 м дымка {туман} ясно +18.8 +14.5 76 +20 +28 1020.9 1012.7 +12.0
5000 м мгла {туман} ясно +25.4 +17.0 60 1021.2 1013.0
ЮВ 2 8000 м мгла {туман} 1/1 300 м
[Cu hum]
+27.8 +14.9 45 +30 +37 жарко 1017.2 1009.0 54.4
штиль 0 4000 м мгла {туман} 8/8 300 м
[St]
+24.2 +16.0 60 +27 +27 жарко 1017.5 1009.3 +28.3
штиль 0 3000 м мгла {туман} 8/5 600 м
[Cu med, cong Ac und]
+25.2 +17.0 60 +29 +35 душно 1020.2 1012.6
Ю 3 5000 м мгла {туман} 8/8 300 м
[St]
+26.7 +16.0 52 +30 +31 душно 1017.2 1009.0
штиль 0 4000 м мгла {туман} 6/6 300 м
[Cu hum Ac trans]
+24.6 +17.0 63 +28 +28 душно 1016.6 1008.4 +27.8
штиль 0 600 м туман на расстоянии ясно +14.2 +14.2 100 +14 +14 1018.0 1009.8
В 2 7000 м мгла {туман} 3/1 600 м
[Cu hum]
+27.4 +15.3 48 +30 +43 жарко 1018.2 1010.0
Ю 2 10 км мгла {туман} 3/1 600 м
[Cu hum]
+29.2 +17.5 49 +33 +40 очень
душно
1014.5 1006.3
штиль 0 8000 м ясно +27.0 +16.0 51 +30 +30 душно 1013.0 1005.6 +29.7
ЮВ 5 н/о н/о +23.8 -42.0 1 +20 +20 1015.4 1000.3 +33.2
штиль 0 800 м туман на расстоянии ясно +20.3 +18.9 92 +24 +24 комфорт 1014.6 978.4
штиль 0 1600 м дымка {туман} ясно +20.4 +16.6 79 +23 +32 комфорт 1016.4 1008.2 +17.0
Местоположение метеостанции Биратнагар (Непал): широта 26.48 долгота 87.26 высота над уровнем моря 72 м.
В архиве по умолчанию представлена погода в Биратнагаре за последнюю неделю. Архивные данные за месяц целиком и за предыдущие месяцы, начиная с января 2011 года, Вы можете получить, выбрав интересующий диапазон дат из раскрывающегося списка и нажав кнопку "Найти!".
*Определитесь, кто Вы:
Внимание! Время в таблицах - всемирное. Для получения местного времени необходимо прибавить поправку, которая равна 5.5 ч.
Смотрите также архив погоды в соседних городах и на ближайших метеорологических станциях:
Партнеры нашего сайта:      
Пояснения к столбцам:
  • Ветер - указаны скорость ветра в м/с - средняя за 10 мин, порывы в срок и между сроками (в фигурных скобках) и направление, откуда дует ветер: С - северный,
  • СВ - северо-восточный, В - восточный, ЮВ - юго-восточный, Ю - южный, ЮЗ - юго-западный, З - западный, СЗ - северо-западный.
  • Видимость - горизонтальная дальность видимости в метрах или километрах. При видимости от 1 до 10 км при отсутствии осадков обычно наблюдается дымка, при ухудшении видимости до 1 км и менее - туман. В сухую погоду видимость может ухудшаться дымом, пылью или мглою.
  • Явления - указаны атмосферные явления, наблюдавшиеся в срок или в последний час перед сроком; фигурными скобками обозначены явления, наблюдавшиеся между сроками (за 1-3 часа до срока); квадратными скобками обозначены град или гололедные отложения с указанием их диаметра в мм.
  • Облачность - указаны через наклонную черту общая и нижняя облачность в баллах и высота нижней границы облаков в метрах; квадратными скобками обозначены формы облаков: Ci - перистые, Cs - перисто-слоистые, Cc - перисто-кучевые, Ac - высококучевые, As - высокослоистые, Sc - слоисто-кучевые, Ns - слоисто-дождевые, Cu - кучевые, Cb - кучево-дождевые. Подробнее классификацию облаков см. в Атласе облаков (PDF).
  • T - Температура воздуха - температура, измеренная на высоте 2 м над землей.
  • Td - Температура точки росы - температура, при понижении до которой содержащийся в воздухе водяной пар достигнет насыщения.
  • f - Относительная влажность воздуха - влажноcть воздуха, измеренная на высоте 2 м над землей.
  • Te - Эффективная температура - температура, которую ощущает одетый по сезону человек в тени. Характеристика душности погоды. При расчете учитывается влияние влажности воздуха и скорости ветра на теплоощущения человека.
  • Tes - Эффективная температура на солнце - температура, которую ощущает человек, с поправкой на солнечный нагрев. Характеристика знойности погоды. Зависит от высоты солнца над горизонтом, облачности и скорости ветра. Ночью, в пасмурную погоду, а также при ветре 12 м/с и более поправка равна нулю.
  • P - Атмосферное давление - приведенное к уровню моря атмосферное давление.
  • Po - Атмосферное давление - измеренное на уровне метеостанции атмосферное давление.
  • Tmin - Минимальная температура - минимум температуры воздуха на высоте 2 м над землей.
  • Tmax - Максимальная температура - максимум температуры воздуха на высоте 2 м над землей.
  • R - Количество осадков - Количество выпавших осадков за период времени, мм. При наведении курсора мыши на число - период времени, за который выпало указанное количество осадков.
  • R24 - Количество осадков - Количество выпавших осадков за 24 часа, мм.
  • S - Снежный покров - Высота снежного покрова, см. При наведении курсора мыши на число - состояние снежного покрова и степень покрытия местности в баллах.